| time (UTC) | temp F | wind direction | speed MPH | gust MPH | rain 1hr in | rain 24hr in | rain mn in | humidity % | barometer mb |
| 20260831063711 | 87 | 298 | 0.0 | 2.0 | 0.00 | 0.00 | 0.00 | 44 | 1015.3 |
| 20260831063206 | 87 | 194 | 0.0 | 6.0 | 0.00 | 0.00 | 0.00 | 44 | 1015.3 |
| 20260831062705 | 87 | 74 | 1.0 | 2.0 | 0.00 | 0.00 | 0.00 | 44 | 1015.3 |
| 20260831062205 | 88 | 254 | 2.0 | 4.0 | 0.00 | 0.00 | 0.00 | 44 | 1015.4 |
| 20260831061703 | 88 | 150 | 1.0 | 2.0 | 0.00 | 0.00 | 0.00 | 44 | 1015.3 |
| 20260831061159 | 88 | 273 | 0.0 | 4.0 | 0.00 | 0.00 | 0.00 | 44 | 1015.5 |
| 20260831060655 | 88 | 155 | 1.0 | 3.0 | 0.00 | 0.00 | 0.00 | 44 | 1015.6 |
| 20260831060154 | 88 | 318 | 0.0 | 4.0 | 0.00 | 0.00 | 0.00 | 44 | 1015.6 |
| 20260831055653 | 88 | 262 | 2.0 | 4.0 | 0.00 | 0.00 | 0.00 | 44 | 1015.3 |
| 20260831055149 | 88 | 83 | 1.0 | 4.0 | 0.00 | 0.00 | 0.00 | 44 | 1015.3 |
| 20260831054644 | 88 | 231 | 3.0 | 7.0 | 0.00 | 0.00 | 0.00 | 44 | 1015.3 |
| 20260831054143 | 88 | 267 | 1.0 | 2.0 | 0.00 | 0.00 | 0.00 | 43 | 1015.2 |
| 20260831053639 | 88 | 276 | 2.0 | 3.0 | 0.00 | 0.00 | 0.00 | 43 | 1015.2 |
| 20260831053137 | 88 | 158 | 1.0 | 4.0 | 0.00 | 0.00 | 0.00 | 43 | 1015.2 |
| 20260831052636 | 88 | 269 | 1.0 | 6.0 | 0.00 | 0.00 | 0.00 | 44 | 1015.3 |
| 20260831052135 | 88 | 268 | 2.0 | 4.0 | 0.00 | 0.00 | 0.00 | 44 | 1015.2 |
| 20260831051629 | 88 | 245 | 1.0 | 3.0 | 0.00 | 0.00 | 0.00 | 44 | 1015.1 |
| 20260831051127 | 89 | 34 | 3.0 | 4.0 | 0.00 | 0.00 | 0.00 | 44 | 1015.1 |
| 20260831050622 | 89 | 303 | 2.0 | 3.0 | 0.00 | 0.00 | 0.00 | 44 | 1015.2 |
| 20260831050120 | 89 | 48 | 2.0 | 4.0 | 0.00 | 0.00 | 0.00 | 44 | 1015.3 |
| 20260831045620 | 89 | 283 | 5.0 | 6.0 | 0.00 | 0.00 | 0.00 | 43 | 1015.3 |
| 20260831045110 | 89 | 252 | 3.0 | 6.0 | 0.00 | 0.00 | 0.00 | 43 | 1015.1 |
| 20260831044605 | 89 | 264 | 3.0 | 6.0 | 0.00 | 0.00 | 0.00 | 43 | 1015.1 |
| 20260831044100 | 89 | 205 | 2.0 | 7.0 | 0.00 | 0.00 | 0.00 | 43 | 1015.0 |
| 20260831043555 | 89 | 4 | 1.0 | 3.0 | 0.00 | 0.00 | 0.00 | 44 | 1015.1 |
| 20260831043051 | 89 | 142 | 2.0 | 8.0 | 0.00 | 0.00 | 0.00 | 43 | 1015.1 |
| 20260831042550 | 89 | 49 | 4.0 | 10.0 | 0.00 | 0.00 | 0.00 | 44 | 1015.0 |
| 20260831042045 | 89 | 349 | 2.0 | 2.0 | 0.00 | 0.00 | 0.00 | 44 | 1015.1 |
| 20260831041540 | 89 | 254 | 0.0 | 2.0 | 0.00 | 0.00 | 0.00 | 44 | 1015.1 |
| 20260831041039 | 89 | 281 | 1.0 | 3.0 | 0.00 | 0.00 | 0.00 | 43 | 1015.0 |
| 20260831040534 | 89 | 134 | 1.0 | 4.0 | 0.00 | 0.00 | 0.00 | 43 | 1015.0 |
| 20260831040033 | 90 | 292 | 3.0 | 4.0 | 0.00 | 0.00 | 0.00 | 42 | 1014.9 |
| 20260831035525 | 90 | 280 | 2.0 | 4.0 | 0.00 | 0.00 | 0.00 | 42 | 1015.1 |
| 20260831035021 | 90 | 271 | 0.0 | 2.0 | 0.00 | 0.00 | 0.00 | 42 | 1015.1 |
| 20260831034515 | 90 | 269 | 2.0 | 4.0 | 0.00 | 0.00 | 0.00 | 41 | 1015.1 |
| 20260831034010 | 91 | 241 | 2.0 | 3.0 | 0.00 | 0.00 | 0.00 | 41 | 1015.0 |
| 20260831033506 | 91 | 70 | 0.0 | 7.0 | 0.00 | 0.00 | 0.00 | 41 | 1014.8 |
| 20260831033001 | 91 | 249 | 2.0 | 3.0 | 0.00 | 0.00 | 0.00 | 41 | 1015.0 |
| 20260831032501 | 91 | 74 | 1.0 | 3.0 | 0.00 | 0.00 | 0.00 | 41 | 1014.9 |
| 20260831031956 | 91 | 273 | 1.0 | 2.0 | 0.00 | 0.00 | 0.00 | 41 | 1014.9 |
| 20260831031455 | 92 | 28 | 1.0 | 3.0 | 0.00 | 0.00 | 0.00 | 41 | 1014.9 |
| 20260831030955 | 92 | 351 | 2.0 | 6.0 | 0.00 | 0.00 | 0.00 | 41 | 1014.8 |
| 20260831030454 | 92 | 259 | 3.0 | 6.0 | 0.00 | 0.00 | 0.00 | 41 | 1014.8 |
| 20260831025952 | 92 | 90 | 1.0 | 7.0 | 0.00 | 0.00 | 0.00 | 41 | 1014.7 |
| 20260831025452 | 92 | 146 | 0.0 | 2.0 | 0.00 | 0.00 | 0.00 | 41 | 1014.6 |
| 20260831024948 | 92 | 260 | 1.0 | 7.0 | 0.00 | 0.00 | 0.00 | 40 | 1014.6 |
| 20260831024443 | 92 | 240 | 4.0 | 7.0 | 0.00 | 0.00 | 0.00 | 40 | 1014.6 |
| 20260831023942 | 92 | 19 | 1.0 | 4.0 | 0.00 | 0.00 | 0.00 | 40 | 1014.3 |
| 20260831023440 | 93 | 58 | 2.0 | 4.0 | 0.00 | 0.00 | 0.00 | 40 | 1014.2 |
| 20260831022936 | 93 | 165 | 1.0 | 3.0 | 0.00 | 0.00 | 0.00 | 39 | 1014.2 |
| 20260831022435 | 93 | 149 | 1.0 | 4.0 | 0.00 | 0.00 | 0.00 | 39 | 1014.2 |
| 20260831021930 | 93 | 261 | 2.0 | 6.0 | 0.00 | 0.00 | 0.00 | 39 | 1014.1 |
| 20260831021429 | 93 | 345 | 2.0 | 3.0 | 0.00 | 0.00 | 0.00 | 39 | 1014.0 |
| 20260831020925 | 93 | 113 | 0.0 | 1.0 | 0.00 | 0.00 | 0.00 | 38 | 1013.9 |
| 20260831020425 | 93 | 80 | 1.0 | 2.0 | 0.00 | 0.00 | 0.00 | 38 | 1013.8 |
| 20260831015920 | 93 | 324 | 1.0 | 1.0 | 0.00 | 0.00 | 0.00 | 38 | 1013.7 |
| 20260831015416 | 93 | 268 | 1.0 | 2.0 | 0.00 | 0.00 | 0.00 | 38 | 1013.7 |
| 20260831014911 | 94 | 180 | 1.0 | 1.0 | 0.00 | 0.00 | 0.00 | 37 | 1013.7 |
| 20260831014410 | 94 | 280 | 1.0 | 3.0 | 0.00 | 0.00 | 0.00 | 37 | 1013.6 |
| 20260831013907 | 94 | 302 | 2.0 | 3.0 | 0.00 | 0.00 | 0.00 | 36 | 1013.4 |
| 20260831013402 | 94 | 72 | 2.0 | 2.0 | 0.00 | 0.00 | 0.00 | 36 | 1013.6 |
| 20260831012902 | 95 | 189 | 1.0 | 2.0 | 0.00 | 0.00 | 0.00 | 36 | 1013.3 |
| 20260831012357 | 95 | 255 | 0.0 | 3.0 | 0.00 | 0.00 | 0.00 | 36 | 1013.3 |
| 20260831011852 | 95 | 324 | 0.0 | 2.0 | 0.00 | 0.00 | 0.00 | 36 | 1013.3 |
| 20260831011346 | 96 | 38 | 0.0 | 3.0 | 0.00 | 0.00 | 0.00 | 35 | 1013.2 |
| 20260831010842 | 96 | 97 | 2.0 | 4.0 | 0.00 | 0.00 | 0.00 | 35 | 1013.2 |
| 20260831010341 | 96 | 261 | 1.0 | 4.0 | 0.00 | 0.00 | 0.00 | 35 | 1013.0 |
| 20260831005838 | 96 | 270 | 1.0 | 2.0 | 0.00 | 0.00 | 0.00 | 34 | 1013.3 |
| 20260831005333 | 97 | 126 | 1.0 | 3.0 | 0.00 | 0.00 | 0.00 | 34 | 1013.2 |
| 20260831004827 | 98 | 319 | 2.0 | 4.0 | 0.00 | 0.00 | 0.00 | 33 | 1013.1 |
| 20260831004324 | 98 | 37 | 1.0 | 3.0 | 0.00 | 0.00 | 0.00 | 33 | 1013.3 |
| 20260831003819 | 98 | 203 | 4.0 | 4.0 | 0.00 | 0.00 | 0.00 | 33 | 1013.2 |
| 20260831003315 | 98 | 245 | 1.0 | 7.0 | 0.00 | 0.00 | 0.00 | 33 | 1013.3 |
| 20260831002815 | 98 | 65 | 2.0 | 7.0 | 0.00 | 0.00 | 0.00 | 33 | 1013.3 |
| 20260831002308 | 98 | 238 | 4.0 | 7.0 | 0.00 | 0.00 | 0.00 | 32 | 1013.1 |
| 20260831001805 | 99 | 222 | 4.0 | 7.0 | 0.00 | 0.00 | 0.00 | 32 | 1013.0 |
| 20260831001304 | 99 | 276 | 4.0 | 7.0 | 0.00 | 0.00 | 0.00 | 32 | 1013.0 |
| 20260831000802 | 99 | 236 | 3.0 | 8.0 | 0.00 | 0.00 | 0.00 | 32 | 1013.3 |
| 20260831000303 | 99 | 243 | 5.0 | 9.0 | 0.00 | 0.00 | 0.00 | 32 | 1013.3 |
| 20260830235800 | 99 | 318 | 1.0 | 3.0 | 0.00 | 0.00 | 0.00 | 32 | 1013.1 |
| 20260830235255 | 100 | 25 | 3.0 | 7.0 | 0.00 | 0.00 | 0.00 | 32 | 1013.4 |
| 20260830234750 | 100 | 96 | 3.0 | 4.0 | 0.00 | 0.00 | 0.00 | 32 | 1013.2 |
| 20260830234246 | 100 | 48 | 1.0 | 6.0 | 0.00 | 0.00 | 0.00 | 31 | 1013.2 |
| 20260830233742 | 100 | 230 | 2.0 | 3.0 | 0.00 | 0.00 | 0.00 | 31 | 1013.4 |
| 20260830233237 | 100 | 222 | 4.0 | 4.0 | 0.00 | 0.00 | 0.00 | 31 | 1013.2 |
| 20260830232732 | 100 | 281 | 0.0 | 7.0 | 0.00 | 0.00 | 0.00 | 31 | 1013.3 |
| 20260830232228 | 101 | 317 | 2.0 | 3.0 | 0.00 | 0.00 | 0.00 | 31 | 1013.2 |
| 20260830231725 | 101 | 290 | 2.0 | 7.0 | 0.00 | 0.00 | 0.00 | 31 | 1013.2 |
| 20260830231224 | 101 | 265 | 1.0 | 9.0 | 0.00 | 0.00 | 0.00 | 31 | 1013.3 |
| 20260830230719 | 101 | 176 | 3.0 | 7.0 | 0.00 | 0.00 | 0.00 | 31 | 1013.3 |
| 20260830230214 | 101 | 265 | 0.0 | 2.0 | 0.00 | 0.00 | 0.00 | 31 | 1013.2 |
| 20260830225709 | 101 | 215 | 2.0 | 8.0 | 0.00 | 0.00 | 0.00 | 30 | 1013.1 |
| 20260830225209 | 102 | 239 | 3.0 | 6.0 | 0.00 | 0.00 | 0.00 | 30 | 1013.4 |
| 20260830224708 | 101 | 291 | 2.0 | 3.0 | 0.00 | 0.00 | 0.00 | 30 | 1013.3 |
| 20260830224204 | 102 | 359 | 2.0 | 6.0 | 0.00 | 0.00 | 0.00 | 30 | 1013.3 |
| 20260830223701 | 103 | 224 | 2.0 | 4.0 | 0.00 | 0.00 | 0.00 | 29 | 1013.2 |
| 20260830223156 | 103 | 266 | 1.0 | 6.0 | 0.00 | 0.00 | 0.00 | 29 | 1013.2 |
| 20260830222650 | 103 | 264 | 2.0 | 4.0 | 0.00 | 0.00 | 0.00 | 29 | 1013.2 |
| 20260830222146 | 104 | 103 | 3.0 | 13.0 | 0.00 | 0.00 | 0.00 | 29 | 1013.1 |
| 20260830221641 | 104 | 319 | 2.0 | 11.0 | 0.00 | 0.00 | 0.00 | 29 | 1013.0 |
| 20260830221132 | 103 | 261 | 5.0 | 9.0 | 0.00 | 0.00 | 0.00 | 29 | 1013.0 |
| 20260830220627 | 104 | 283 | 4.0 | 8.0 | 0.00 | 0.00 | 0.00 | 29 | 1013.2 |
| 20260830220126 | 103 | 243 | 2.0 | 4.0 | 0.00 | 0.00 | 0.00 | 29 | 1013.1 |
| 20260830215625 | 103 | 112 | 5.0 | 8.0 | 0.00 | 0.00 | 0.00 | 28 | 1013.2 |
| 20260830215120 | 103 | 346 | 2.0 | 10.0 | 0.00 | 0.00 | 0.00 | 29 | 1013.1 |
| 20260830214615 | 104 | 123 | 2.0 | 7.0 | 0.00 | 0.00 | 0.00 | 28 | 1013.4 |
| 20260830214110 | 104 | 285 | 2.0 | 10.0 | 0.00 | 0.00 | 0.00 | 29 | 1013.4 |
| 20260830213609 | 104 | 237 | 3.0 | 10.0 | 0.00 | 0.00 | 0.00 | 28 | 1013.4 |
| 20260830213105 | 103 | 226 | 3.0 | 10.0 | 0.00 | 0.00 | 0.00 | 28 | 1013.4 |
| 20260830212600 | 104 | 99 | 2.0 | 6.0 | 0.00 | 0.00 | 0.00 | 28 | 1013.5 |
| 20260830212055 | 104 | 75 | 2.0 | 9.0 | 0.00 | 0.00 | 0.00 | 29 | 1013.5 |
| 20260830211550 | 103 | 3 | 1.0 | 7.0 | 0.00 | 0.00 | 0.00 | 29 | 1013.7 |
| 20260830211049 | 104 | 254 | 5.0 | 9.0 | 0.00 | 0.00 | 0.00 | 29 | 1013.6 |
| 20260830210544 | 105 | 301 | 1.0 | 4.0 | 0.00 | 0.00 | 0.00 | 28 | 1013.5 |
| 20260830210038 | 104 | 269 | 4.0 | 6.0 | 0.00 | 0.00 | 0.00 | 29 | 1013.7 |
| 20260830205536 | 105 | 81 | 1.0 | 4.0 | 0.00 | 0.00 | 0.00 | 29 | 1013.9 |
| 20260830205032 | 104 | 249 | 2.0 | 3.0 | 0.00 | 0.00 | 0.00 | 29 | 1013.9 |
| 20260830204531 | 104 | 246 | 2.0 | 7.0 | 0.00 | 0.00 | 0.00 | 29 | 1013.8 |
| 20260830204030 | 105 | 46 | 3.0 | 6.0 | 0.00 | 0.00 | 0.00 | 30 | 1014.1 |
| 20260830203527 | 105 | 241 | 1.0 | 4.0 | 0.00 | 0.00 | 0.00 | 30 | 1014.0 |
| 20260830203021 | 105 | 273 | 3.0 | 6.0 | 0.00 | 0.00 | 0.00 | 29 | 1014.3 |
| 20260830202521 | 105 | 81 | 2.0 | 4.0 | 0.00 | 0.00 | 0.00 | 29 | 1014.2 |
| 20260830202017 | 105 | 118 | 2.0 | 7.0 | 0.00 | 0.00 | 0.00 | 30 | 1014.4 |
| 20260830201516 | 105 | 183 | 3.0 | 3.0 | 0.00 | 0.00 | 0.00 | 29 | 1014.3 |
| 20260830201011 | 104 | 220 | 1.0 | 7.0 | 0.00 | 0.00 | 0.00 | 30 | 1014.5 |
| 20260830200507 | 105 | 184 | 4.0 | 4.0 | 0.00 | 0.00 | 0.00 | 30 | 1014.5 |
| 20260830200006 | 104 | 339 | 1.0 | 9.0 | 0.00 | 0.00 | 0.00 | 30 | 1014.7 |
| 20260830195501 | 103 | 296 | 4.0 | 9.0 | 0.00 | 0.00 | 0.00 | 30 | 1014.8 |
| 20260830194959 | 104 | 139 | 3.0 | 7.0 | 0.00 | 0.00 | 0.00 | 30 | 1014.9 |
| 20260830194458 | 103 | 127 | 4.0 | 6.0 | 0.00 | 0.00 | 0.00 | 31 | 1014.9 |
| 20260830193948 | 103 | 237 | 5.0 | 9.0 | 0.00 | 0.00 | 0.00 | 31 | 1015.0 |
| 20260830193447 | 104 | 198 | 5.0 | 10.0 | 0.00 | 0.00 | 0.00 | 31 | 1014.9 |
| 20260830192943 | 103 | 141 | 2.0 | 9.0 | 0.00 | 0.00 | 0.00 | 32 | 1015.0 |
| 20260830192438 | 103 | 68 | 2.0 | 9.0 | 0.00 | 0.00 | 0.00 | 32 | 1014.9 |
| 20260830191933 | 104 | 259 | 4.0 | 10.0 | 0.00 | 0.00 | 0.00 | 31 | 1015.0 |
| 20260830191432 | 103 | 157 | 2.0 | 8.0 | 0.00 | 0.00 | 0.00 | 31 | 1014.9 |
| 20260830190928 | 103 | 254 | 4.0 | 7.0 | 0.00 | 0.00 | 0.00 | 32 | 1014.8 |
| 20260830190423 | 102 | 270 | 2.0 | 9.0 | 0.00 | 0.00 | 0.00 | 33 | 1015.1 |
| 20260830185922 | 103 | 203 | 3.0 | 6.0 | 0.00 | 0.00 | 0.00 | 32 | 1015.1 |
| 20260830185418 | 102 | 232 | 2.0 | 8.0 | 0.00 | 0.00 | 0.00 | 32 | 1015.0 |
| 20260830184913 | 102 | 200 | 5.0 | 7.0 | 0.00 | 0.00 | 0.00 | 33 | 1015.2 |
| 20260830184412 | 102 | 225 | 6.0 | 11.0 | 0.00 | 0.00 | 0.00 | 33 | 1015.2 |
| 20260830183911 | 102 | 252 | 3.0 | 9.0 | 0.00 | 0.00 | 0.00 | 33 | 1015.6 |
| 20260830183406 | 101 | 200 | 3.0 | 13.0 | 0.00 | 0.00 | 0.00 | 34 | 1015.3 |
| 20260830182902 | 102 | 238 | 4.0 | 8.0 | 0.00 | 0.00 | 0.00 | 34 | 1015.4 |
| 20260830182357 | 101 | 272 | 4.0 | 9.0 | 0.00 | 0.00 | 0.00 | 34 | 1015.5 |
| 20260830181854 | 102 | 313 | 4.0 | 10.0 | 0.00 | 0.00 | 0.00 | 32 | 1015.6 |
| 20260830181349 | 102 | 243 | 3.0 | 9.0 | 0.00 | 0.00 | 0.00 | 32 | 1015.7 |
| 20260830180848 | 101 | 65 | 3.0 | 10.0 | 0.00 | 0.00 | 0.00 | 35 | 1015.6 |
| 20260830180343 | 102 | 260 | 2.0 | 7.0 | 0.00 | 0.00 | 0.00 | 34 | 1015.8 |
| 20260830175842 | 101 | 155 | 3.0 | 9.0 | 0.00 | 0.00 | 0.00 | 35 | 1015.7 |
| 20260830175337 | 100 | 118 | 1.0 | 6.0 | 0.00 | 0.00 | 0.00 | 36 | 1015.9 |
| 20260830174832 | 101 | 241 | 4.0 | 11.0 | 0.00 | 0.00 | 0.00 | 35 | 1015.9 |
| 20260830174327 | 100 | 315 | 1.0 | 10.0 | 0.00 | 0.00 | 0.00 | 35 | 1015.8 |
| 20260830173827 | 100 | 242 | 9.0 | 13.0 | 0.00 | 0.00 | 0.00 | 36 | 1015.8 |
| 20260830173323 | 100 | 313 | 5.0 | 8.0 | 0.00 | 0.00 | 0.00 | 36 | 1016.3 |
| 20260830172819 | 100 | 276 | 1.0 | 10.0 | 0.00 | 0.00 | 0.00 | 36 | 1016.4 |
| 20260830172315 | 100 | 328 | 2.0 | 6.0 | 0.00 | 0.00 | 0.00 | 37 | 1016.3 |
| 20260830171811 | 99 | 85 | 2.0 | 8.0 | 0.00 | 0.00 | 0.00 | 37 | 1016.3 |
| 20260830171306 | 99 | 294 | 4.0 | 7.0 | 0.00 | 0.00 | 0.00 | 37 | 1016.6 |
| 20260830170800 | 99 | 48 | 2.0 | 4.0 | 0.00 | 0.00 | 0.00 | 38 | 1016.6 |
| 20260830170259 | 99 | 325 | 4.0 | 9.0 | 0.00 | 0.00 | 0.00 | 38 | 1016.6 |
| 20260830165753 | 98 | 202 | 4.0 | 9.0 | 0.00 | 0.00 | 0.00 | 38 | 1016.6 |
| 20260830165249 | 99 | 243 | 8.0 | 11.0 | 0.00 | 0.00 | 0.00 | 38 | 1016.6 |
| 20260830164745 | 98 | 75 | 0.0 | 13.0 | 0.00 | 0.00 | 0.00 | 39 | 1016.7 |
| 20260830164241 | 98 | 171 | 4.0 | 7.0 | 0.00 | 0.00 | 0.00 | 38 | 1016.4 |
| 20260830163738 | 97 | 196 | 1.0 | 9.0 | 0.00 | 0.00 | 0.00 | 39 | 1016.5 |
| 20260830163233 | 97 | 315 | 4.0 | 13.0 | 0.00 | 0.00 | 0.00 | 40 | 1016.6 |
| 20260830162727 | 98 | 258 | 4.0 | 8.0 | 0.00 | 0.00 | 0.00 | 39 | 1016.6 |
| 20260830162223 | 97 | 32 | 3.0 | 7.0 | 0.00 | 0.00 | 0.00 | 40 | 1016.8 |
| 20260830161718 | 97 | 172 | 3.0 | 8.0 | 0.00 | 0.00 | 0.00 | 40 | 1016.8 |
| 20260830161212 | 96 | 242 | 2.0 | 7.0 | 0.00 | 0.00 | 0.00 | 40 | 1016.9 |
| 20260830160708 | 97 | 277 | 6.0 | 11.0 | 0.00 | 0.00 | 0.00 | 40 | 1016.9 |
| 20260830160203 | 97 | 248 | 4.0 | 9.0 | 0.00 | 0.00 | 0.00 | 40 | 1016.7 |
| 20260830155700 | 96 | 198 | 5.0 | 7.0 | 0.00 | 0.00 | 0.00 | 41 | 1016.8 |
| 20260830155155 | 95 | 189 | 2.0 | 6.0 | 0.00 | 0.00 | 0.00 | 43 | 1016.9 |
| 20260830154650 | 95 | 251 | 4.0 | 7.0 | 0.00 | 0.00 | 0.00 | 43 | 1016.8 |
| 20260830154146 | 94 | 270 | 2.0 | 3.0 | 0.00 | 0.00 | 0.00 | 43 | 1016.6 |
| 20260830153643 | 93 | 257 | 2.0 | 4.0 | 0.00 | 0.00 | 0.00 | 45 | 1016.8 |
| 20260830153142 | 92 | 18 | 2.0 | 7.0 | 0.00 | 0.00 | 0.00 | 46 | 1016.7 |
| 20260830152641 | 92 | 263 | 2.0 | 4.0 | 0.00 | 0.00 | 0.00 | 45 | 1016.8 |
| 20260830152140 | 92 | 83 | 2.0 | 4.0 | 0.00 | 0.00 | 0.00 | 46 | 1016.9 |
| 20260830151636 | 92 | 233 | 3.0 | 6.0 | 0.00 | 0.00 | 0.00 | 47 | 1016.8 |
| 20260830151135 | 91 | 240 | 1.0 | 4.0 | 0.00 | 0.00 | 0.00 | 47 | 1016.8 |
| 20260830150630 | 90 | 295 | 2.0 | 6.0 | 0.00 | 0.00 | 0.00 | 48 | 1016.9 |
| 20260830150125 | 90 | 338 | 3.0 | 6.0 | 0.00 | 0.00 | 0.00 | 48 | 1016.9 |
| 20260830145624 | 90 | 189 | 3.0 | 8.0 | 0.00 | 0.00 | 0.00 | 48 | 1016.9 |
| 20260830145120 | 89 | 112 | 3.0 | 7.0 | 0.00 | 0.00 | 0.00 | 49 | 1016.8 |
| 20260830144615 | 89 | 36 | 1.0 | 8.0 | 0.00 | 0.00 | 0.00 | 49 | 1017.0 |
| 20260830144111 | 89 | 254 | 2.0 | 8.0 | 0.00 | 0.00 | 0.00 | 49 | 1017.1 |
| 20260830143607 | 88 | 304 | 2.0 | 4.0 | 0.00 | 0.00 | 0.00 | 50 | 1016.8 |
| 20260830143105 | 88 | 36 | 3.0 | 8.0 | 0.00 | 0.00 | 0.00 | 50 | 1017.0 |
| 20260830142600 | 87 | 276 | 4.0 | 6.0 | 0.00 | 0.00 | 0.00 | 50 | 1017.2 |
| 20260830142055 | 87 | 264 | 2.0 | 8.0 | 0.00 | 0.00 | 0.00 | 51 | 1017.0 |
| 20260830141550 | 87 | 335 | 5.0 | 8.0 | 0.00 | 0.00 | 0.00 | 50 | 1017.2 |
| 20260830141050 | 87 | 341 | 3.0 | 6.0 | 0.00 | 0.00 | 0.00 | 51 | 1017.3 |
| 20260830140545 | 87 | 215 | 2.0 | 9.0 | 0.00 | 0.00 | 0.00 | 51 | 1017.2 |
| 20260830140041 | 86 | 335 | 1.0 | 6.0 | 0.00 | 0.00 | 0.00 | 52 | 1017.2 |
| 20260830135536 | 86 | 228 | 1.0 | 6.0 | 0.00 | 0.00 | 0.00 | 51 | 1017.1 |
| 20260830135031 | 86 | 350 | 3.0 | 4.0 | 0.00 | 0.00 | 0.00 | 52 | 1017.2 |
| 20260830134527 | 85 | 275 | 0.0 | 9.0 | 0.00 | 0.00 | 0.00 | 52 | 1017.1 |
| 20260830134022 | 85 | 231 | 1.0 | 4.0 | 0.00 | 0.00 | 0.00 | 53 | 1017.1 |
| 20260830133518 | 84 | 335 | 2.0 | 7.0 | 0.00 | 0.00 | 0.00 | 53 | 1016.9 |
| 20260830133012 | 84 | 108 | 4.0 | 7.0 | 0.00 | 0.00 | 0.00 | 53 | 1017.2 |
| 20260830132509 | 83 | 218 | 1.0 | 4.0 | 0.00 | 0.00 | 0.00 | 55 | 1017.2 |
| 20260830132009 | 83 | 218 | 1.0 | 4.0 | 0.00 | 0.00 | 0.00 | 55 | 1017.2 |
| 20260830131507 | 82 | 160 | 2.0 | 2.0 | 0.00 | 0.00 | 0.00 | 55 | 1017.0 |
| 20260830131002 | 81 | 219 | 3.0 | 4.0 | 0.00 | 0.00 | 0.00 | 57 | 1017.0 |
| 20260830130457 | 80 | 340 | 2.0 | 2.0 | 0.00 | 0.00 | 0.00 | 57 | 1017.0 |
| 20260830125955 | 80 | 278 | 2.0 | 3.0 | 0.00 | 0.00 | 0.00 | 58 | 1017.0 |
| 20260830125451 | 80 | 95 | 2.0 | 2.0 | 0.00 | 0.00 | 0.00 | 58 | 1016.9 |
| 20260830124949 | 80 | 301 | 1.0 | 3.0 | 0.00 | 0.00 | 0.00 | 58 | 1016.9 |
| 20260830124439 | 79 | 274 | 0.0 | 1.0 | 0.00 | 0.00 | 0.00 | 59 | 1016.7 |
| 20260830123936 | 79 | 42 | 1.0 | 3.0 | 0.00 | 0.00 | 0.00 | 59 | 1016.7 |
| 20260830123432 | 79 | 42 | 0.0 | 3.0 | 0.00 | 0.00 | 0.00 | 59 | 1016.9 |
| 20260830122930 | 79 | 40 | 1.0 | 2.0 | 0.00 | 0.00 | 0.00 | 59 | 1016.6 |
| 20260830122429 | 79 | 95 | 0.0 | 1.0 | 0.00 | 0.00 | 0.00 | 59 | 1016.7 |
| 20260830121924 | 79 | 17 | 1.0 | 3.0 | 0.00 | 0.00 | 0.00 | 58 | 1016.6 |
| 20260830121420 | 79 | 302 | 2.0 | 4.0 | 0.00 | 0.00 | 0.00 | 58 | 1016.5 |
| 20260830120914 | 79 | 112 | 1.0 | 3.0 | 0.00 | 0.00 | 0.00 | 58 | 1016.6 |
| 20260830120410 | 79 | 36 | 1.0 | 4.0 | 0.00 | 0.00 | 0.00 | 58 | 1016.6 |
| 20260830115906 | 79 | 154 | 1.0 | 2.0 | 0.00 | 0.00 | 0.00 | 58 | 1016.6 |
| 20260830115402 | 79 | 113 | 1.0 | 3.0 | 0.00 | 0.00 | 0.00 | 58 | 1016.4 |
| 20260830114857 | 80 | 191 | 1.0 | 3.0 | 0.00 | 0.00 | 0.00 | 58 | 1016.4 |
| 20260830114354 | 79 | 275 | 2.0 | 3.0 | 0.00 | 0.00 | 0.00 | 58 | 1016.4 |
| 20260830113848 | 80 | 41 | 1.0 | 1.0 | 0.00 | 0.00 | 0.00 | 58 | 1016.6 |
| 20260830113343 | 80 | 326 | 1.0 | 2.0 | 0.00 | 0.00 | 0.00 | 58 | 1016.4 |
| 20260830112839 | 80 | 254 | 1.0 | 2.0 | 0.00 | 0.00 | 0.00 | 58 | 1016.5 |
| 20260830112334 | 80 | 46 | 2.0 | 3.0 | 0.00 | 0.00 | 0.00 | 57 | 1016.5 |
| 20260830111830 | 80 | 24 | 2.0 | 4.0 | 0.00 | 0.00 | 0.00 | 57 | 1016.4 |
| 20260830111325 | 80 | 270 | 0.0 | 2.0 | 0.00 | 0.00 | 0.00 | 57 | 1016.3 |
| 20260830110820 | 80 | 291 | 2.0 | 3.0 | 0.00 | 0.00 | 0.00 | 56 | 1016.3 |
| 20260830110316 | 80 | 348 | 1.0 | 2.0 | 0.00 | 0.00 | 0.00 | 57 | 1016.4 |
| 20260830105815 | 80 | 102 | 1.0 | 3.0 | 0.00 | 0.00 | 0.00 | 56 | 1016.2 |
| 20260830105312 | 80 | 254 | 0.0 | 2.0 | 0.00 | 0.00 | 0.00 | 57 | 1016.2 |
| 20260830104808 | 80 | 40 | 0.0 | 1.0 | 0.00 | 0.00 | 0.00 | 56 | 1016.3 |
| 20260830104304 | 80 | 161 | 1.0 | 1.0 | 0.00 | 0.00 | 0.00 | 56 | 1016.3 |
| 20260830103803 | 80 | 221 | 0.0 | 3.0 | 0.00 | 0.00 | 0.00 | 56 | 1016.4 |
| 20260830103259 | 80 | 267 | 0.0 | 2.0 | 0.00 | 0.00 | 0.00 | 56 | 1016.2 |
| 20260830102757 | 81 | 140 | 2.0 | 3.0 | 0.00 | 0.00 | 0.00 | 56 | 1016.2 |
| 20260830102253 | 81 | 18 | 2.0 | 3.0 | 0.00 | 0.00 | 0.00 | 55 | 1016.1 |
| 20260830101749 | 81 | 59 | 0.0 | 2.0 | 0.00 | 0.00 | 0.00 | 55 | 1016.2 |
| 20260830101244 | 81 | 271 | 1.0 | 2.0 | 0.00 | 0.00 | 0.00 | 55 | 1016.2 |
| 20260830100743 | 81 | 70 | 1.0 | 2.0 | 0.00 | 0.00 | 0.00 | 54 | 1016.1 |
| 20260830100238 | 82 | 17 | 3.0 | 4.0 | 0.00 | 0.00 | 0.00 | 54 | 1016.1 |
| 20260830095737 | 82 | 140 | 1.0 | 4.0 | 0.00 | 0.00 | 0.00 | 54 | 1015.9 |
| 20260830095233 | 82 | 44 | 2.0 | 2.0 | 0.00 | 0.00 | 0.00 | 54 | 1016.2 |
| 20260830094728 | 82 | 87 | 1.0 | 3.0 | 0.00 | 0.00 | 0.00 | 53 | 1015.8 |
| 20260830094225 | 82 | 346 | 0.0 | 3.0 | 0.00 | 0.00 | 0.00 | 53 | 1015.9 |
| 20260830093719 | 82 | 283 | 2.0 | 6.0 | 0.00 | 0.00 | 0.00 | 52 | 1015.8 |
| 20260830093216 | 82 | 118 | 1.0 | 3.0 | 0.00 | 0.00 | 0.00 | 52 | 1015.8 |
| 20260830092715 | 83 | 96 | 0.0 | 2.0 | 0.00 | 0.00 | 0.00 | 52 | 1015.6 |
| 20260830092212 | 83 | 317 | 2.0 | 3.0 | 0.00 | 0.00 | 0.00 | 52 | 1015.6 |
| 20260830091702 | 83 | 212 | 3.0 | 6.0 | 0.00 | 0.00 | 0.00 | 52 | 1015.5 |
| 20260830091200 | 83 | 313 | 2.0 | 3.0 | 0.00 | 0.00 | 0.00 | 51 | 1015.7 |
| 20260830090655 | 83 | 260 | 4.0 | 4.0 | 0.00 | 0.00 | 0.00 | 51 | 1015.6 |
| 20260830090150 | 83 | 157 | 2.0 | 2.0 | 0.00 | 0.00 | 0.00 | 51 | 1015.4 |
| 20260830085649 | 83 | 66 | 1.0 | 6.0 | 0.00 | 0.00 | 0.00 | 51 | 1015.6 |
| 20260830085146 | 83 | 11 | 0.0 | 7.0 | 0.00 | 0.00 | 0.00 | 51 | 1015.6 |
| 20260830084641 | 83 | 113 | 1.0 | 3.0 | 0.00 | 0.00 | 0.00 | 51 | 1015.8 |
| 20260830084136 | 83 | 64 | 2.0 | 6.0 | 0.00 | 0.00 | 0.00 | 51 | 1015.7 |
| 20260830083631 | 83 | 239 | 2.0 | 3.0 | 0.00 | 0.00 | 0.00 | 50 | 1015.5 |
| 20260830083126 | 83 | 39 | 1.0 | 4.0 | 0.00 | 0.00 | 0.00 | 50 | 1015.6 |
| 20260830082621 | 83 | 322 | 2.0 | 6.0 | 0.00 | 0.00 | 0.00 | 50 | 1015.6 |
| 20260830082117 | 83 | 271 | 1.0 | 4.0 | 0.00 | 0.00 | 0.00 | 50 | 1015.6 |
| 20260830081613 | 83 | 214 | 1.0 | 2.0 | 0.00 | 0.00 | 0.00 | 50 | 1015.5 |
| 20260830081111 | 83 | 321 | 1.0 | 3.0 | 0.00 | 0.00 | 0.00 | 50 | 1015.6 |
| 20260830080606 | 84 | 326 | 1.0 | 4.0 | 0.00 | 0.00 | 0.00 | 50 | 1015.6 |
| 20260830075556 | 84 | 91 | 2.0 | 3.0 | 0.00 | 0.00 | 0.00 | 50 | 1015.4 |
| 20260830075056 | 84 | 284 | 2.0 | 7.0 | 0.00 | 0.00 | 0.00 | 49 | 1015.7 |
| 20260830074552 | 84 | 18 | 1.0 | 2.0 | 0.00 | 0.00 | 0.00 | 49 | 1015.4 |
| 20260830074048 | 84 | 217 | 1.0 | 6.0 | 0.00 | 0.00 | 0.00 | 49 | 1015.6 |
| 20260830073544 | 85 | 248 | 2.0 | 7.0 | 0.00 | 0.00 | 0.00 | 48 | 1015.7 |
| 20260830073039 | 85 | 40 | 2.0 | 8.0 | 0.00 | 0.00 | 0.00 | 48 | 1015.8 |
| 20260830072534 | 85 | 40 | 3.0 | 4.0 | 0.00 | 0.00 | 0.00 | 48 | 1015.8 |
| 20260830072034 | 85 | 312 | 0.0 | 6.0 | 0.00 | 0.00 | 0.00 | 48 | 1015.9 |
| 20260830071530 | 85 | 276 | 2.0 | 6.0 | 0.00 | 0.00 | 0.00 | 48 | 1015.5 |
| 20260830071027 | 85 | 13 | 1.0 | 4.0 | 0.00 | 0.00 | 0.00 | 47 | 1015.7 |
| 20260830070522 | 86 | 43 | 2.0 | 3.0 | 0.00 | 0.00 | 0.00 | 47 | 1015.9 |
| 20260830070017 | 86 | 35 | 1.0 | 3.0 | 0.00 | 0.00 | 0.00 | 46 | 1015.7 |
| 20260830065516 | 86 | 103 | 1.0 | 2.0 | 0.00 | 0.00 | 0.00 | 46 | 1015.8 |
| 20260830065014 | 86 | 254 | 1.0 | 4.0 | 0.00 | 0.00 | 0.00 | 45 | 1015.7 |
| 20260830064504 | 86 | 59 | 1.0 | 3.0 | 0.00 | 0.00 | 0.00 | 45 | 1015.7 |